Home > Weather > Halton Hills > Past weeks

Flag for Canada Weather for the Past 2 Weeks in Halton Hills, Ontario, Canada

Now
34 °F

Broken clouds.


Feels Like: 25 °F
Forecast: N/A
Wind: 13 mph from Southwest

Location: Toronto Pearson International Airport

Current Time: Feb 9, 2016 at 5:45:57 PM

Latest Report: Feb 9, 2016 at 5:00 PM


Visibility: 15 mi

Pressure: 29.49 "Hg

Humidity: 75%

Dew point: 27 °F

Location of Halton HillsLocation

Historic Weather in Halton Hills — Graph

°F

Halton Hills Temperature Yesterday

Maximum temperature yesterday: 41 °F (at 12:00 PM)
Minimum temperature yesterday: 30 °F (at 10:00 PM)
Average temperature yesterday: 36 °F

High & Low Weather Summary for the Past Weeks

 TemperatureHumidityPressure
High61 °F (Feb 3, 2:00 PM)100% (Feb 3, 7:00 AM)30.36 "Hg (Feb 3, 7:00 AM)
Low16 °F (Jan 29, 8:00 PM)39% (Feb 3, 4:00 PM)29.44 "Hg (Jan 31, 11:00 PM)
Average34 °F72%29.87 "Hg
* Reported Jan 25 4:00 PM — Feb 9 4:00 PM, Halton Hills, Weather by CustomWeather, © 2016

Note: Actual official high and low records may vary slightly from our data, if they occured in-between our weather recording intervals... More about our weather records

Advertising

Halton Hills Weather History for the Previous 24 Hours

 ConditionsComfort  
Time TempWeatherWind HumidityBarometerVisibility
4:00 PM
Tue, Feb 9
34 °FSprinkles. Cloudy.6 mph87%29.49 "Hg10 mi
3:56 PM34 °FSprinkles. More clouds than sun.5 mph87%29.48 "Hg8 mi
3:00 PM34 °FLight snow. Low clouds.6 mph87%29.48 "Hg8 mi
2:00 PM34 °FLight snow. Overcast.5 mph81%29.49 "Hg15 mi
1:00 PM32 °FLight snow. Overcast.5 mph87%29.50 "Hg4 mi
12:00 PM30 °FLight snow. Mostly cloudy.5 mph86%29.52 "Hg4 mi
11:00 AM28 °FLight snow. Overcast.5 mph86%29.54 "Hg4 mi
10:00 AM28 °FLight snow. Mostly cloudy.6 mph86%29.54 "Hg6 mi
9:00 AM27 °FLight snow. Low clouds.7 mph86%29.54 "Hg6 mi
8:00 AM27 °FLight snow. Low clouds.7 mph86%29.54 "Hg6 mi
7:00 AM27 °FLight snow. Overcast.7 mph86%29.52 "Hg4 mi
6:00 AM27 °FLight snow. Low clouds.7 mph93%29.52 "Hg5 mi
5:00 AM28 °FLight snow. Low clouds.10 mph86%29.52 "Hg5 mi
4:00 AM28 °FLight snow. Low clouds.13 mph86%29.52 "Hg5 mi
3:00 AM28 °FLight snow. Low clouds.14 mph86%29.53 "Hg6 mi
2:00 AM28 °FLight snow. Low clouds.15 mph86%29.54 "Hg6 mi
1:00 AM28 °FLight snow. Low clouds.16 mph86%29.55 "Hg6 mi
12:00 AM30 °FLight snow. Low clouds.13 mph86%29.57 "Hg4 mi
11:48 PM
Mon, Feb 8
30 °FLight snow. Low clouds.14 mph86%29.57 "Hg4 mi
11:00 PM30 °FLight snow. Low clouds.15 mph93%29.58 "Hg3 mi
10:00 PM30 °FLight snow. Overcast.16 mph93%29.60 "Hg4 mi
9:00 PM32 °FSnow flurries. Mostly cloudy.14 mph87%29.61 "Hg6 mi
8:00 PM34 °FSnow flurries. Mostly cloudy.18 mph75%29.61 "Hg10 mi
7:00 PM34 °FMostly cloudy.15 mph81%29.62 "Hg15 mi
6:00 PM34 °FSprinkles. Overcast.16 mph81%29.63 "Hg10 mi
5:00 PM34 °FSprinkles. Overcast.17 mph87%29.63 "Hg8 mi
Weather by CustomWeather, © 2016

See weather overviewHow to use our weather pages